Weather History for Glenwood, MN

Change the Weather History Date:

Sunday, August 19, 2012

  Actual Average Record
Temperature  
Mean Temperature 62 °F -  
Max Temperature 73 °F 79 °F 95 °F (1998)
Min Temperature 51 °F 55 °F 39 °F (2004)
Degree Days  
Heating Degree Days 3    
Growing Degree Days 12 (Base 50)    
Moisture  
Dew Point 49 °F    
Average Humidity 62    
Maximum Humidity 94    
Minimum Humidity 33    
Precipitation  
Precipitation 0.00 in - - ()
Sea Level Pressure  
Sea Level Pressure 30.04 in    
Wind  
Wind Speed 5 mph (North)    
Max Wind Speed 10 mph    
Max Gust Speed -    
Visibility 10 miles    
Events      
Averages and records for this station are not official NWS values.
T = Trace of Precipitation, MM = Missing Value Source: NWS Daily Summary

Daily Weather History Graph

Daily Weather History Graph

Search for Another Location

Airport:

Trip Planner

Search our weather history database for the weather conditions in past years. The results will help you decide how hot, cold, wet, or windy it might be!

Date:

Astronomy

Aug. 19, 2012 Rise Set
Actual Time 6:27 AM CDT 8:21 PM CDT
Civil Twilight 5:55 AM CDT 8:53 PM CDT
Nautical Twilight 5:16 AM CDT 9:32 PM CDT
Astronomical Twilight 4:33 AM CDT 10:14 PM CDT
Moon 8:53 AM CDT (8/19) 8:58 PM CDT (8/19)
Length of Visible Light 14h 58m
Length of Day
13h 54m
Waxing Crescent, 5% of the Moon is Illuminated
Aug 19
Waxing Crescent
Aug 24
First Quarter
Aug 31
Full
Sep 8
Last Quarter
Sep 15
New

Hourly Weather History & Observations

Time (CDT) Temp. Dew Point Humidity Pressure Visibility Wind Dir Wind Speed Gust Speed Precip Events Conditions
12:14 AM 57.2 °F 48.2 °F 72% 30.01 in 10.0 mi NE 4.6 mph - N/A   Clear
12:33 AM 57.2 °F 50.0 °F 77% 30.01 in 10.0 mi Calm Calm - N/A   Scattered Clouds
12:53 AM 57.2 °F 50.0 °F 77% 30.02 in 10.0 mi Calm Calm - N/A   Overcast
1:13 AM 59.0 °F 51.8 °F 77% 30.02 in 10.0 mi North 4.6 mph - N/A   Overcast
1:33 AM 57.2 °F 51.8 °F 82% 30.02 in 10.0 mi North 3.5 mph - N/A   Overcast
1:53 AM 57.2 °F 51.8 °F 82% 30.01 in 10.0 mi North 4.6 mph - N/A   Mostly Cloudy
2:13 AM 57.2 °F 51.8 °F 82% 30.01 in 10.0 mi North 5.8 mph - N/A   Mostly Cloudy
2:33 AM 57.2 °F 51.8 °F 82% 30.01 in 10.0 mi North 5.8 mph - N/A   Mostly Cloudy
2:53 AM 57.2 °F 51.8 °F 82% 30.02 in 10.0 mi North 6.9 mph - N/A   Mostly Cloudy
3:13 AM 55.4 °F 51.8 °F 88% 30.02 in 10.0 mi North 6.9 mph - N/A   Mostly Cloudy
3:33 AM 55.4 °F 50.0 °F 82% 30.03 in 10.0 mi NNW 6.9 mph - N/A   Mostly Cloudy
3:53 AM 55.4 °F 50.0 °F 82% 30.03 in 10.0 mi North 5.8 mph - N/A   Scattered Clouds
4:13 AM 53.6 °F 50.0 °F 88% 30.03 in 10.0 mi North 6.9 mph - N/A   Scattered Clouds
4:33 AM 53.6 °F 48.2 °F 82% 30.03 in 10.0 mi North 8.1 mph - N/A   Clear
4:53 AM 53.6 °F 48.2 °F 82% 30.03 in 10.0 mi North 6.9 mph - N/A   Clear
5:13 AM 53.6 °F 48.2 °F 82% 30.03 in 10.0 mi North 6.9 mph - N/A   Clear
5:33 AM 51.8 °F 48.2 °F 88% 30.03 in 10.0 mi North 6.9 mph - N/A   Clear
5:54 AM 51.8 °F 48.2 °F 88% 30.04 in 10.0 mi North 8.1 mph - N/A   Clear
6:13 AM 51.8 °F 48.2 °F 88% 30.04 in 10.0 mi North 6.9 mph - N/A   Clear
6:33 AM 51.8 °F 48.2 °F 88% 30.05 in 10.0 mi North 6.9 mph - N/A   Clear
6:54 AM 51.8 °F 48.2 °F 88% 30.05 in 10.0 mi North 6.9 mph - N/A   Clear
7:13 AM 53.6 °F 51.8 °F 94% 30.06 in 10.0 mi North 5.8 mph - N/A   Clear
7:33 AM 55.4 °F 51.8 °F 88% 30.06 in 10.0 mi North 4.6 mph - N/A   Clear
7:54 AM 55.4 °F 51.8 °F 88% 30.06 in 10.0 mi North 3.5 mph - N/A   Clear
8:13 AM 57.2 °F 53.6 °F 88% 30.07 in 10.0 mi North 4.6 mph - N/A   Clear
8:33 AM 60.8 °F 53.6 °F 77% 30.07 in 10.0 mi NNE 4.6 mph - N/A   Clear
9:13 AM 62.6 °F 53.6 °F 72% 30.07 in 10.0 mi North 6.9 mph - N/A   Clear
9:34 AM 64.4 °F 53.6 °F 68% 30.07 in 10.0 mi NNE 8.1 mph - N/A   Clear
9:53 AM 64.4 °F 53.6 °F 68% 30.07 in 10.0 mi NNE 8.1 mph - N/A   Clear
10:53 AM 68.0 °F 51.8 °F 56% 30.08 in 10.0 mi NNE 5.8 mph - N/A   Clear
11:13 AM 68.0 °F 51.8 °F 56% 30.07 in 10.0 mi NNE 8.1 mph - N/A   Clear
11:34 AM 69.8 °F 51.8 °F 53% 30.08 in 10.0 mi NNE 5.8 mph - N/A   Clear
11:53 AM 69.8 °F 51.8 °F 53% 30.08 in 10.0 mi NE 6.9 mph - N/A   Clear
12:13 PM 71.6 °F 50.0 °F 46% 30.08 in 10.0 mi NNE 9.2 mph - N/A   Clear
12:34 PM 71.6 °F 48.2 °F 43% 30.07 in 10.0 mi NNE 6.9 mph - N/A   Scattered Clouds
12:53 PM 73.4 °F 46.4 °F 38% 30.07 in 10.0 mi NNE 8.1 mph - N/A   Scattered Clouds
1:13 PM 69.8 °F 48.2 °F 46% 30.07 in 10.0 mi North 3.5 mph - N/A   Mostly Cloudy
1:34 PM 71.6 °F 46.4 °F 41% 30.07 in 10.0 mi NNE 4.6 mph - N/A   Mostly Cloudy
1:53 PM 71.6 °F 48.2 °F 43% 30.06 in 10.0 mi North 8.1 mph - N/A   Scattered Clouds
2:13 PM 73.4 °F 48.2 °F 41% 30.06 in 10.0 mi NNW 6.9 mph - N/A   Scattered Clouds
2:34 PM 73.4 °F 48.2 °F 41% 30.05 in 10.0 mi North 9.2 mph - N/A   Scattered Clouds
2:53 PM 73.4 °F 44.6 °F 36% 30.05 in 10.0 mi NNW 8.1 mph - N/A   Scattered Clouds
3:13 PM 73.4 °F 44.6 °F 36% 30.04 in 10.0 mi WNW 3.5 mph - N/A   Clear
3:34 PM 71.6 °F 46.4 °F 41% 30.04 in 10.0 mi North 9.2 mph - N/A   Scattered Clouds
3:53 PM 73.4 °F 46.4 °F 38% 30.04 in 10.0 mi NNE 5.8 mph - N/A   Mostly Cloudy
4:13 PM 73.4 °F 46.4 °F 38% 30.03 in 10.0 mi NNW 10.4 mph - N/A   Mostly Cloudy
4:34 PM 71.6 °F 46.4 °F 41% 30.03 in 10.0 mi NNW 4.6 mph - N/A   Scattered Clouds
4:53 PM 73.4 °F 46.4 °F 38% 30.03 in 10.0 mi NNE 3.5 mph - N/A   Mostly Cloudy
5:13 PM 69.8 °F 48.2 °F 46% 30.03 in 10.0 mi North 4.6 mph - N/A   Scattered Clouds
5:33 PM 69.8 °F 48.2 °F 46% 30.02 in 10.0 mi North 4.6 mph - N/A   Scattered Clouds
5:53 PM 69.8 °F 48.2 °F 46% 30.02 in 10.0 mi Calm Calm - N/A   Scattered Clouds
6:14 PM 73.4 °F 44.6 °F 36% 30.02 in 10.0 mi WNW 5.8 mph - N/A   Clear
6:33 PM 73.4 °F 44.6 °F 36% 30.02 in 10.0 mi North 5.8 mph - N/A   Mostly Cloudy
6:53 PM 73.4 °F 42.8 °F 33% 30.02 in 10.0 mi NNE 4.6 mph - N/A   Overcast
7:14 PM 71.6 °F 44.6 °F 38% 30.02 in 10.0 mi Calm Calm - N/A   Mostly Cloudy
7:33 PM 69.8 °F 46.4 °F 43% 30.02 in 10.0 mi Calm Calm - N/A   Scattered Clouds
7:53 PM 69.8 °F 46.4 °F 43% 30.02 in 10.0 mi Calm Calm - N/A   Scattered Clouds
8:14 PM 66.2 °F 51.8 °F 60% 30.02 in 10.0 mi Calm Calm - N/A   Scattered Clouds
8:33 PM 64.4 °F 46.4 °F 52% 30.02 in 10.0 mi NW 3.5 mph - N/A   Clear
8:53 PM 62.6 °F 48.2 °F 59% 30.03 in 10.0 mi NNW 3.5 mph - N/A   Clear
9:14 PM 62.6 °F 46.4 °F 55% 30.03 in 10.0 mi NNW 3.5 mph - N/A   Clear
9:33 PM 62.6 °F 46.4 °F 55% 30.03 in 10.0 mi North 4.6 mph - N/A   Clear
9:53 PM 62.6 °F 46.4 °F 55% 30.04 in 10.0 mi North 3.5 mph - N/A   Clear
10:13 PM 62.6 °F 46.4 °F 55% 30.04 in 10.0 mi North 3.5 mph - N/A   Clear
10:33 PM 60.8 °F 46.4 °F 59% 30.04 in 10.0 mi NE 3.5 mph - N/A   Clear
10:53 PM 60.8 °F 46.4 °F 59% 30.04 in 10.0 mi NNE 3.5 mph - N/A   Clear
11:13 PM 59.0 °F 46.4 °F 63% 30.04 in 10.0 mi Calm Calm - N/A   Clear
11:33 PM 57.2 °F 46.4 °F 67% 30.04 in 10.0 mi ENE 3.5 mph - N/A   Clear
11:53 PM 57.2 °F 46.4 °F 67% 30.04 in 10.0 mi Calm Calm - N/A   Clear